Weather History for KLOR - December, 2013

Change the Weather History Date:

Sunday, December 15, 2013

  Actual Average (KDHN) Record (KDHN)
Temperature  
Mean Temperature 46 °F 51 °F  
Max Temperature 57 °F 62 °F 77 °F (1948)
Min Temperature 34 °F 40 °F 21 °F (1944)
Degree Days  
Heating Degree Days 20 14  
Month to date heating degree days 190  
Since 1 July heating degree days 467  
Moisture  
Dew Point 39 °F    
Average Humidity 78    
Maximum Humidity 94    
Minimum Humidity 57    
Precipitation  
Precipitation 0.03 in 0.14 in 2.59 in (2007)
Month to date precipitation 2.57  
Year to date precipitation 52.15  
Sea Level Pressure  
Sea Level Pressure 30.09 in    
Wind  
Wind Speed 9 mph (NNW)    
Max Wind Speed 15 mph    
Max Gust Speed 24 mph    
Visibility 10 miles    
Events Rain    
T = Trace of Precipitation, MM = Missing Value Source: NWS Daily Summary

Daily Weather History Graph

Daily Weather History Graph

Search for Another Location

Airport or City:

Trip Planner

Search our weather history database for the weather conditions in past years. The results will help you decide how hot, cold, wet, or windy it might be!

Date:

Astronomy

Dec. 15, 2013 Rise Set
Actual Time 6:34 AM CST 4:41 PM CST
Civil Twilight 6:07 AM CST 5:08 PM CST
Nautical Twilight 5:37 AM CST 5:39 PM CST
Astronomical Twilight 5:07 AM CST 6:08 PM CST
Moon 3:41 PM CST (12/15) 4:54 AM CST (12/15)
Length of Visible Light 11h 00m
Length of Day
10h 07m
Waxing Gibbous, 98% of the Moon is Illuminated
Dec 15
Waxing Gibbous
Dec 17
Full
Dec 25
Last Quarter
Jan 1
New
Jan 7
First Quarter

Hourly Weather History & Observations

Time (CST) Temp. Windchill Dew Point Humidity Pressure Visibility Wind Dir Wind Speed Gust Speed Precip Events Conditions
12:53 AM 57.9 °F - 55.0 °F 90% 29.89 in 10.0 mi West 3.5 mph - 0.03 in   Overcast
1:20 AM 57.2 °F - 55.4 °F 94% 29.91 in 10.0 mi West 6.9 mph - N/A   Overcast
1:33 AM 55.4 °F - 53.6 °F 94% 29.92 in 8.0 mi NW 12.7 mph 24.2 mph 0.00 in Rain Light Rain
1:53 AM 54.0 °F - 51.1 °F 90% 29.92 in 7.0 mi NNW 11.5 mph 18.4 mph 0.00 in   Overcast
2:53 AM 52.0 °F - 48.9 °F 89% 29.96 in 9.0 mi NW 9.2 mph - N/A   Overcast
3:04 AM 51.8 °F - 48.2 °F 88% 29.96 in 10.0 mi NW 9.2 mph 19.6 mph N/A   Overcast
3:30 AM 51.8 °F - 46.4 °F 82% 29.97 in 10.0 mi NNW 10.4 mph - N/A   Overcast
3:53 AM 50.0 °F - 46.9 °F 89% 29.97 in 10.0 mi NNW 10.4 mph 19.6 mph N/A   Overcast
4:02 AM 50.0 °F - 46.4 °F 87% 29.98 in 9.0 mi WNW 12.7 mph 18.4 mph N/A   Overcast
4:33 AM 46.4 °F 41.9 °F 42.8 °F 87% 30.01 in 9.0 mi NNW 9.2 mph 24.2 mph N/A   Overcast
4:53 AM 46.0 °F 39.9 °F 41.0 °F 83% 30.02 in 10.0 mi NW 13.8 mph 21.9 mph N/A   Overcast
5:53 AM 45.0 °F 38.9 °F 39.9 °F 82% 30.05 in 10.0 mi NW 12.7 mph - N/A   Overcast
6:53 AM 44.1 °F 37.1 °F 39.0 °F 82% 30.09 in 10.0 mi NNW 15.0 mph 20.7 mph N/A   Overcast
7:18 AM 42.8 °F 38.0 °F 37.4 °F 81% 30.10 in 10.0 mi North 8.1 mph 19.6 mph N/A   Overcast
7:53 AM 43.0 °F 38.2 °F 37.9 °F 82% 30.11 in 10.0 mi North 8.1 mph - N/A   Overcast
8:53 AM 43.0 °F 36.8 °F 37.0 °F 80% 30.14 in 10.0 mi North 11.5 mph 19.6 mph N/A   Overcast
9:53 AM 43.0 °F 36.4 °F 36.0 °F 76% 30.15 in 10.0 mi North 12.7 mph 20.7 mph N/A   Overcast
10:53 AM 44.1 °F 39.5 °F 36.0 °F 73% 30.13 in 10.0 mi North 8.1 mph - N/A   Overcast
11:53 AM 46.9 °F - 35.1 °F 63% 30.13 in 10.0 mi NNW 9.2 mph - N/A   Overcast
12:53 PM 48.9 °F - 35.1 °F 59% 30.12 in 10.0 mi NNW 10.4 mph - N/A   Mostly Cloudy
1:07 PM 50.0 °F - 35.6 °F 58% 30.12 in 10.0 mi North 11.5 mph - N/A   Scattered Clouds
1:28 PM 48.2 °F - 35.6 °F 62% 30.12 in 10.0 mi North 11.5 mph 18.4 mph N/A   Mostly Cloudy
1:53 PM 48.9 °F - 35.1 °F 59% 30.12 in 10.0 mi North 10.4 mph 19.6 mph N/A   Mostly Cloudy
2:07 PM 50.0 °F - 35.6 °F 58% 30.12 in 10.0 mi North 9.2 mph 18.4 mph N/A   Scattered Clouds
2:53 PM 50.0 °F - 35.1 °F 57% 30.12 in 10.0 mi NNW 10.4 mph - N/A   Clear
3:53 PM 45.0 °F 38.2 °F 34.0 °F 65% 30.14 in 10.0 mi NNW 15.0 mph 20.7 mph N/A   Clear
4:53 PM 42.1 °F 36.6 °F 34.0 °F 73% 30.16 in 10.0 mi North 9.2 mph 20.7 mph N/A   Clear
5:53 PM 39.9 °F 36.7 °F 33.1 °F 77% 30.19 in 10.0 mi North 4.6 mph - N/A   Clear
6:53 PM 37.9 °F 34.4 °F 32.0 °F 79% 30.22 in 9.0 mi North 4.6 mph - N/A   Clear
7:53 PM 37.9 °F 34.4 °F 32.0 °F 79% 30.23 in 10.0 mi North 4.6 mph - N/A   Clear
8:53 PM 37.0 °F - 30.9 °F 79% 30.24 in 9.0 mi Calm Calm - N/A   Clear
9:53 PM 35.1 °F 32.2 °F 30.9 °F 85% 30.25 in 8.0 mi North 3.5 mph - N/A   Clear
10:53 PM 34.0 °F 31.0 °F 30.9 °F 89% 30.25 in 7.0 mi NNW 3.5 mph - N/A   Clear
11:53 PM 34.0 °F 31.0 °F 30.9 °F 89% 30.25 in 7.0 mi North 3.5 mph - N/A   Clear